Regional Weather Roundup
Issued by NWS Green Bay, WI

Home | Current Version | Previous Version | Text Only | Print | Product List | Glossary On
Versions: 1 2 3 4 5 6 7 8 9 10 11 12 13 14 15 16 17 18 19 20 21 22 23 24 25 26 27 28 29 30 31 32 33 34 35 36 37 38 39 40 41 42 43 44 45 46 47 48 49 50
000
ASUS43 KGRB 011110
RWRGRB

NORTH-CENTRAL AND NORTHEAST WISCONSIN REGIONAL WEATHER ROUNDUP
NATIONAL WEATHER SERVICE GREEN BAY WI
500 AM CST SUN FEB 01 2015

WIZ005-009-010>012-018-019-011200-
NORTH CENTRAL WISCONSIN

CITY           SKY/WX    TMP DP  RH WIND       PRES   REMARKS
IRONWOOD       CLOUDY     3   0  85 E3        30.29S
MANITOWISH WTR CLOUDY     3  -3  76 NE6       30.25S WCI  -8
ARBOR VITAE    CLOUDY     5  -1  77 NE6       30.23F WCI  -6
EAGLE RIVER    CLOUDY     4  -2  76 NE9       30.23S WCI -11
LAND O LAKES   CLOUDY     4  -1  80 N6        30.25S WCI  -7
RHINELANDER    CLOUDY     5  -2  72 NE12      30.21F WCI -11
PHILLIPS       CLOUDY     4  -2  76 NE14      30.23S WCI -13
ANTIGO         CLOUDY     7   2  79 NE14      30.20S WCI  -9
TOMAHAWK       CLOUDY     6  -1  74 CALM      30.23F
MERRILL        CLOUDY     9   1  72 NE8       30.22S WCI  -4
$$

WIZ013-073-011200-
NORTHEAST WISCONSIN

CITY           SKY/WX    TMP DP  RH WIND       PRES   REMARKS
IRON MOUNTAIN  CLOUDY     8   2  76 N6        30.27S WCI  -2
MARINETTE      CLOUDY    12   3  67 NE9       30.28S WCI   0
OCONTO         CLOUDY    13   5  73 MISG      30.28R
$$

WIZ017-030-035>037-045-011200-
CENTRAL WISCONSIN

CITY           SKY/WX    TMP DP  RH WIND       PRES   REMARKS
MEDFORD        CLOUDY     9   1  71 NE16      30.18S WCI  -9
WAUSAU         CLOUDY    10   1  67 NE8G16    30.20F WCI  -2
MOSINEE        NOT AVBL
MARSHFIELD     LGT SNOW  11   6  81 E16G26    30.16F WCI  -6
WISC RAPIDS    LGT SNOW  12   6  77 NE13G24   30.19F WCI  -3
STEVENS POINT  LGT SNOW   9   5  82 NE15G23   30.19F WCI  -7
WAUPACA        LGT SNOW  14   9  79 NE12      30.21F WCI   0
SHAWANO        CLOUDY    14   6  69 NE13      30.26S WCI   0
CLINTONVILLE   LGT SNOW  12   5  73 NE14      30.24F WCI  -3
$$

WIZ038-039-048-051-011200-
FOX VALLEY

CITY           SKY/WX    TMP DP  RH WIND       PRES   REMARKS
NWS GREEN BAY  LGT SNOW  14   7  73 NE20      30.24S WCI  -3
APPLETON       NOT AVBL
OSHKOSH        LGT SNOW  14   9  80 NE22G28   30.18F VSB 1   WCI  -4
FOND DU LAC    LGT SNOW  15  10  80 NE17G28   30.17F WCI  -1
$$

WIZ022-050-052-011200-
EAST CENTRAL WISCONSIN

CITY           SKY/WX    TMP DP  RH WIND       PRES   REMARKS
STURGEON BAY   CLOUDY    12   3  67 NE15      30.27S WCI  -4
MANITOWOC      LGT SNOW  16  14  92 N10       30.21R FOG     WCI   4
SHEBOYGAN      LGT SNOW  17  13  84 N10       30.17S VSB 1   WCI   5
$$

LMZ563-521-522-541>543-011200-
LAKESHORE

STATION/POSITION TIME  TEMP    WIND        PRES    VSBY  WAVE
                       AIR SEA DIR/SP/G                  HT/PER
                 (UTC) (F)     (DEG/KT/KT) (MB)    (MI)  (FT/S)
SHEBOYGAN LKSHOR 1100   23      50/ 28/ 30 1022.7R
KEWAUNEE LKSHORE 1100   16      10/ 11/ 17 1022.7R
NORTHPORT PIER   1100   13      20/ 19/ 23 1026.1S
SISTER BAY LKSHO 1000   13     360/ 15/ 21   N/A
CHAMBERS ISLAND  1100   13      10/ 20/ 23 1025.4F
MENOMINEE LKSHOR 1100   13      10/ 14     1026.0S
$$


USA.gov is the U.S. government's official web portal to all federal, state and local government web resources and services.